CXA8144 RJTT-RJBB

Flight info

Callsign CXA8144
Flight time N/A
Altitude 30000
Route LAXAS Y56 TOHME Y54 KOHWA Y544 DUBKA
Aircraft B738/M-SDE2E3FGHIRWXY/LB1

Departure

Time 2026-02-22 06:59
Airport Tokyo Haneda International Airport (RJTT)

Arrival

Time N/A
Airport Kansai International Airport (RJBB)
Time Latitude Longitude Altitude Speed Heading
2026-02-22 06:29 35.54879 139.76754 67 ft 0 kts 150°
2026-02-22 06:48 35.54887 139.76748 80 ft 2 kts 148°
2026-02-22 06:48 35.54902 139.76738 57 ft 2 kts 148°
2026-02-22 06:48 35.54916 139.76728 57 ft 2 kts 151°
2026-02-22 06:49 35.54931 139.76718 61 ft 2 kts 153°
2026-02-22 06:49 35.54946 139.76710 58 ft 2 kts 161°
2026-02-22 06:49 35.54961 139.76709 57 ft 2 kts 241°
2026-02-22 06:49 35.54963 139.76713 57 ft 0 kts 240°
2026-02-22 06:53 35.54964 139.76715 67 ft 2 kts 240°
2026-02-22 06:53 35.54974 139.76732 67 ft 2 kts 313°
2026-02-22 06:53 35.54961 139.76740 62 ft 2 kts 62°
2026-02-22 06:54 35.54957 139.76721 59 ft 2 kts 95°
2026-02-22 06:54 35.54958 139.76703 60 ft 1 kts 49°
2026-02-22 06:54 35.54961 139.76710 67 ft 2 kts 59°
2026-02-22 06:55 35.54972 139.76732 67 ft 4 kts 59°
2026-02-22 06:55 35.54991 139.76771 67 ft 6 kts 59°
2026-02-22 06:55 35.55017 139.76826 64 ft 8 kts 62°
2026-02-22 06:55 35.55037 139.76871 66 ft 10 kts 61°
2026-02-22 06:56 35.55071 139.76946 65 ft 11 kts 61°
2026-02-22 06:56 35.55107 139.77028 67 ft 11 kts 61°
2026-02-22 06:56 35.55128 139.77068 62 ft 5 kts 49°
2026-02-22 06:56 35.55157 139.77091 62 ft 5 kts 20°
2026-02-22 06:57 35.55197 139.77088 67 ft 6 kts 341°
2026-02-22 06:57 35.55239 139.77061 63 ft 7 kts 330°
2026-02-22 06:57 35.55289 139.77026 63 ft 9 kts 330°
2026-02-22 06:57 35.55349 139.76984 64 ft 11 kts 329°
2026-02-22 06:58 35.55417 139.76934 66 ft 12 kts 330°
2026-02-22 06:58 35.55500 139.76915 64 ft 13 kts 17°
2026-02-22 06:58 35.55576 139.76974 62 ft 14 kts 34°
2026-02-22 06:58 35.55655 139.77042 64 ft 14 kts 38°
2026-02-22 06:59 35.55649 139.77151 61 ft 24 kts 129°
2026-02-22 06:59 35.55290 139.77412 63 ft 95 kts 150°
2026-02-22 06:59 35.54546 139.77941 138 ft 144 kts 150°
2026-02-22 06:59 35.53701 139.78545 934 ft 138 kts 156°
2026-02-22 07:00 35.52811 139.79117 1547 ft 153 kts 159°
2026-02-22 07:00 35.51845 139.79793 2160 ft 165 kts 158°
2026-02-22 07:00 35.50814 139.80534 2774 ft 185 kts 158°
2026-02-22 07:00 35.49620 139.81383 3024 ft 215 kts 158°
2026-02-22 07:01 35.48278 139.82341 3507 ft 230 kts 157°
2026-02-22 07:01 35.46868 139.83349 4172 ft 238 kts 156°
2026-02-22 07:01 35.45420 139.84382 4916 ft 243 kts 156°
2026-02-22 07:01 35.43877 139.85223 5593 ft 242 kts 176°
2026-02-22 07:02 35.42206 139.84996 6107 ft 248 kts 208°
2026-02-22 07:02 35.40724 139.83869 6870 ft 254 kts 220°
2026-02-22 07:02 35.39334 139.82508 7770 ft 256 kts 222°
2026-02-22 07:02 35.37945 139.81111 8684 ft 260 kts 222°
2026-02-22 07:03 35.36520 139.79700 9547 ft 266 kts 221°
2026-02-22 07:03 35.35060 139.78281 10390 ft 271 kts 221°
2026-02-22 07:03 35.33520 139.76792 10726 ft 295 kts 221°
2026-02-22 07:03 35.31834 139.75167 10931 ft 321 kts 220°
2026-02-22 07:04 35.30026 139.73391 11102 ft 345 kts 222°
2026-02-22 07:04 35.28166 139.71460 11352 ft 363 kts 223°
2026-02-22 07:04 35.26230 139.69413 11965 ft 369 kts 223°
2026-02-22 07:04 35.24283 139.67357 12755 ft 371 kts 223°
2026-02-22 07:05 35.22315 139.65290 13535 ft 373 kts 223°
2026-02-22 07:05 35.20332 139.63216 14232 ft 377 kts 223°
2026-02-22 07:05 35.18324 139.61122 14843 ft 381 kts 223°
2026-02-22 07:05 35.16296 139.59010 15487 ft 384 kts 222°
2026-02-22 07:06 35.14252 139.56883 16141 ft 386 kts 222°
2026-02-22 07:06 35.12198 139.54747 16765 ft 389 kts 222°
2026-02-22 07:06 35.10122 139.52589 17344 ft 393 kts 222°
2026-02-22 07:06 35.08143 139.50329 17908 ft 396 kts 228°
2026-02-22 07:07 35.06524 139.47618 18435 ft 398 kts 246°
2026-02-22 07:07 35.05884 139.44335 18975 ft 400 kts 264°
2026-02-22 07:07 35.05711 139.40943 19560 ft 401 kts 265°
2026-02-22 07:07 35.05463 139.37534 20016 ft 405 kts 261°
2026-02-22 07:08 35.04923 139.34146 20479 ft 408 kts 256°
2026-02-22 07:08 35.04261 139.30772 20993 ft 410 kts 256°
2026-02-22 07:08 35.03615 139.27367 21469 ft 412 kts 257°
2026-02-22 07:08 35.03016 139.23936 21928 ft 415 kts 258°
2026-02-22 07:09 35.02447 139.20467 22356 ft 418 kts 258°
2026-02-22 07:09 35.01882 139.16972 22791 ft 421 kts 258°
2026-02-22 07:09 35.01311 139.13461 23220 ft 423 kts 258°
2026-02-22 07:09 35.00728 139.09929 23634 ft 426 kts 258°
2026-02-22 07:10 35.00138 139.06384 23991 ft 428 kts 258°
2026-02-22 07:10 34.99549 139.02866 24343 ft 430 kts 258°
2026-02-22 07:10 34.98951 138.99285 24712 ft 431 kts 259°
2026-02-22 07:10 34.98451 138.95675 25059 ft 433 kts 262°
2026-02-22 07:11 34.98097 138.92017 25375 ft 435 kts 264°
2026-02-22 07:11 34.97869 138.88325 25706 ft 436 kts 266°
2026-02-22 07:11 34.97746 138.84625 26030 ft 438 kts 268°
2026-02-22 07:11 34.97671 138.80910 26379 ft 438 kts 268°
2026-02-22 07:12 34.97579 138.77203 26871 ft 436 kts 268°
2026-02-22 07:12 34.97451 138.73528 27418 ft 432 kts 267°
2026-02-22 07:12 34.97290 138.69884 27927 ft 429 kts 266°
2026-02-22 07:12 34.97105 138.66260 28368 ft 428 kts 266°
2026-02-22 07:13 34.96910 138.62682 28782 ft 427 kts 266°
2026-02-22 07:13 34.96708 138.59075 29288 ft 425 kts 266°
2026-02-22 07:13 34.96505 138.55485 29765 ft 423 kts 266°
2026-02-22 07:13 34.96304 138.51914 30117 ft 423 kts 266°
2026-02-22 07:14 34.96102 138.48323 30099 ft 424 kts 266°
2026-02-22 07:14 34.95700 138.41168 30095 ft 421 kts 266°
2026-02-22 07:15 34.95297 138.34061 30088 ft 420 kts 266°
2026-02-22 07:15 34.94892 138.26983 30088 ft 420 kts 266°
2026-02-22 07:16 34.94477 138.19830 30095 ft 423 kts 266°
2026-02-22 07:16 34.94062 138.12734 30084 ft 421 kts 266°
2026-02-22 07:17 34.93646 138.05626 30087 ft 420 kts 266°
2026-02-22 07:17 34.93227 137.98528 30102 ft 420 kts 266°
2026-02-22 07:18 34.92804 137.91425 30094 ft 419 kts 266°
2026-02-22 07:18 34.92378 137.84339 30111 ft 419 kts 266°
2026-02-22 07:19 34.91960 137.77294 30117 ft 419 kts 266°
2026-02-22 07:19 34.91544 137.70211 30111 ft 419 kts 265°
2026-02-22 07:20 34.90508 137.63229 30092 ft 420 kts 253°
2026-02-22 07:20 34.88270 137.56645 30104 ft 421 kts 248°
2026-02-22 07:21 34.86034 137.50057 30096 ft 420 kts 251°
2026-02-22 07:21 34.84098 137.43398 30094 ft 419 kts 252°
2026-02-22 07:22 34.82225 137.36691 30092 ft 418 kts 252°
2026-02-22 07:22 34.80339 137.30015 30085 ft 417 kts 252°
2026-02-22 07:23 34.78437 137.23362 30081 ft 416 kts 252°
2026-02-22 07:23 34.76532 137.16725 30070 ft 415 kts 252°
2026-02-22 07:24 34.74644 137.10162 30069 ft 414 kts 252°
2026-02-22 07:24 34.72740 137.03554 30062 ft 413 kts 252°
2026-02-22 07:25 34.70836 136.96969 30055 ft 413 kts 251°
2026-02-22 07:25 34.68604 136.90518 29835 ft 418 kts 246°
2026-02-22 07:25 34.67292 136.87347 29549 ft 419 kts 244°
2026-02-22 07:26 34.65894 136.84236 29273 ft 420 kts 243°
2026-02-22 07:26 34.64464 136.81133 28989 ft 421 kts 243°
2026-02-22 07:26 34.63041 136.78010 28711 ft 423 kts 243°
2026-02-22 07:26 34.61640 136.74865 28448 ft 424 kts 244°
2026-02-22 07:27 34.60258 136.71697 28185 ft 425 kts 244°
2026-02-22 07:27 34.58902 136.68549 27921 ft 426 kts 244°
2026-02-22 07:27 34.57537 136.65357 27658 ft 427 kts 244°
2026-02-22 07:27 34.56171 136.62153 27396 ft 427 kts 244°
2026-02-22 07:28 34.54804 136.58949 27141 ft 428 kts 244°
2026-02-22 07:28 34.53434 136.55744 26886 ft 428 kts 244°
2026-02-22 07:28 34.52060 136.52535 26636 ft 429 kts 244°
2026-02-22 07:28 34.50683 136.49324 26386 ft 429 kts 244°
2026-02-22 07:29 34.49306 136.46116 26125 ft 430 kts 244°
2026-02-22 07:29 34.47924 136.42901 25886 ft 430 kts 244°
2026-02-22 07:29 34.46539 136.39681 25652 ft 431 kts 244°
2026-02-22 07:29 34.45168 136.36497 25399 ft 431 kts 244°
2026-02-22 07:30 34.43781 136.33278 25166 ft 431 kts 243°
2026-02-22 07:30 34.42392 136.30060 24936 ft 430 kts 243°
2026-02-22 07:30 34.41008 136.26852 24688 ft 429 kts 243°
2026-02-22 07:30 34.39625 136.23653 24451 ft 427 kts 243°
2026-02-22 07:31 34.38249 136.20470 24218 ft 425 kts 243°
2026-02-22 07:31 34.36882 136.17313 23974 ft 422 kts 243°
2026-02-22 07:31 34.35555 136.14157 23761 ft 420 kts 245°
2026-02-22 07:31 34.34407 136.10901 23471 ft 418 kts 250°
2026-02-22 07:32 34.33535 136.07553 23248 ft 417 kts 255°
2026-02-22 07:32 34.32931 136.04115 22954 ft 417 kts 260°
2026-02-22 07:32 34.32510 136.00686 22697 ft 416 kts 261°
2026-02-22 07:32 34.32094 135.97219 22424 ft 415 kts 260°
2026-02-22 07:33 34.31604 135.93792 22126 ft 412 kts 258°
2026-02-22 07:33 34.31029 135.90401 21884 ft 410 kts 257°
2026-02-22 07:33 34.30403 135.87033 21552 ft 411 kts 257°
2026-02-22 07:33 34.29767 135.83650 21057 ft 413 kts 257°
2026-02-22 07:34 34.29146 135.80287 20529 ft 406 kts 257°
2026-02-22 07:34 34.28540 135.76973 20046 ft 401 kts 257°
2026-02-22 07:34 34.27940 135.73692 19556 ft 399 kts 258°
2026-02-22 07:34 34.27342 135.70423 19048 ft 397 kts 258°
2026-02-22 07:35 34.26747 135.67170 18585 ft 396 kts 258°
2026-02-22 07:35 34.26153 135.63933 18079 ft 394 kts 258°
2026-02-22 07:35 34.25560 135.60706 17558 ft 392 kts 258°
2026-02-22 07:35 34.24970 135.57498 17037 ft 390 kts 258°
2026-02-22 07:36 34.24382 135.54308 16528 ft 387 kts 258°
2026-02-22 07:36 34.23800 135.51161 16014 ft 380 kts 258°
2026-02-22 07:36 34.23235 135.48106 15507 ft 373 kts 258°
2026-02-22 07:36 34.22670 135.45059 15016 ft 370 kts 258°
2026-02-22 07:37 34.22110 135.42034 14524 ft 367 kts 258°
2026-02-22 07:37 34.21556 135.39047 14045 ft 360 kts 258°
2026-02-22 07:37 34.21014 135.36130 13540 ft 352 kts 258°
2026-02-22 07:37 34.20486 135.33281 13017 ft 344 kts 258°
2026-02-22 07:38 34.19968 135.30488 12499 ft 338 kts 257°
2026-02-22 07:38 34.19457 135.27736 11980 ft 333 kts 257°
2026-02-22 07:38 34.18952 135.25026 11476 ft 328 kts 257°
2026-02-22 07:38 34.18462 135.22395 10991 ft 323 kts 256°
2026-02-22 07:39 34.17972 135.19767 10505 ft 316 kts 256°
2026-02-22 07:39 34.17498 135.17232 10075 ft 302 kts 256°
2026-02-22 07:39 34.17039 135.14814 9610 ft 290 kts 253°
2026-02-22 07:39 34.16198 135.12674 9113 ft 279 kts 234°
2026-02-22 07:40 34.14883 135.11036 8692 ft 265 kts 219°
2026-02-22 07:40 34.13360 135.09881 8244 ft 253 kts 215°
2026-02-22 07:40 34.12290 135.08366 8047 ft 229 kts 248°
2026-02-22 07:40 34.12007 135.06564 8022 ft 210 kts 263°
2026-02-22 07:41 34.12069 135.04826 8018 ft 207 kts 274°
2026-02-22 07:41 34.12507 135.03187 8013 ft 205 kts 292°
2026-02-22 07:41 34.13223 135.01744 7696 ft 208 kts 294°
2026-02-22 07:41 34.13981 135.00166 6971 ft 222 kts 292°
2026-02-22 07:42 34.14695 134.98568 6804 ft 206 kts 291°
2026-02-22 07:42 34.15719 134.96284 6859 ft 165 kts 289°
2026-02-22 07:42 34.16410 134.94737 7009 ft 159 kts 289°
2026-02-22 07:43 34.16755 134.93962 6973 ft 157 kts 289°
2026-02-22 07:43 34.17267 134.92824 7043 ft 152 kts 289°
2026-02-22 07:43 34.17764 134.91717 7049 ft 150 kts 289°
2026-02-22 07:43 34.18630 134.89780 7089 ft 172 kts 290°
2026-02-22 07:44 34.19783 134.87242 7043 ft 174 kts 290°
2026-02-22 07:44 34.20961 134.84653 7035 ft 175 kts 290°
2026-02-22 07:44 34.22117 134.82113 7002 ft 170 kts 291°
2026-02-22 07:44 34.24384 134.77138 6945 ft 141 kts 288°
2026-02-22 07:45 34.25642 134.74369 6930 ft 138 kts 289°
2026-02-22 07:45 34.28858 134.71910 6548 ft 201 kts 33°
2026-02-22 07:45 34.31356 134.77631 6025 ft 177 kts 73°
2026-02-22 07:45 34.34422 134.82590 5641 ft 189 kts 46°
2026-02-22 07:46 34.37885 134.87137 5431 ft 172 kts 50°
2026-02-22 07:46 34.41010 134.91593 6485 ft 183 kts 50°
2026-02-22 07:46 34.44386 134.96506 7638 ft 195 kts 49°
2026-02-22 07:46 34.48022 135.01808 7755 ft 208 kts 49°
2026-02-22 07:47 34.51564 135.06981 7498 ft 191 kts 49°
2026-02-22 07:47 34.54890 135.11845 7448 ft 191 kts 49°
2026-02-22 07:47 34.58431 135.17028 6618 ft 202 kts 50°
2026-02-22 07:47 34.61117 135.22675 5182 ft 198 kts 105°
2026-02-22 07:48 34.60392 135.28442 4426 ft 166 kts 101°
2026-02-22 07:48 34.60371 135.33932 3830 ft 153 kts 104°
2026-02-22 07:48 34.60230 135.37332 3887 ft 150 kts 124°
2026-02-22 07:48 34.59547 135.38025 3934 ft 120 kts 186°
2026-02-22 07:49 34.58751 135.37889 3989 ft 118 kts 191°
2026-02-22 07:49 34.56976 135.37775 3965 ft 119 kts 189°
2026-02-22 07:49 34.55078 135.37292 3968 ft 115 kts 203°
2026-02-22 07:49 34.54337 135.36929 3957 ft 117 kts 204°
2026-02-22 07:50 34.53593 135.36557 3957 ft 114 kts 205°
2026-02-22 07:50 34.52856 135.36184 3966 ft 114 kts 204°
2026-02-22 07:50 34.52284 135.35571 3615 ft 118 kts 242°
2026-02-22 07:50 34.52439 135.34490 3072 ft 153 kts 291°
2026-02-22 07:51 34.53364 135.33661 2558 ft 173 kts 323°
2026-02-22 07:51 34.54460 135.33028 2085 ft 180 kts 341°
2026-02-22 07:51 34.55693 135.33165 1662 ft 179 kts 32°
2026-02-22 07:51 34.56439 135.34194 1517 ft 155 kts 86°
2026-02-22 07:52 34.56328 135.35364 1487 ft 132 kts 136°
2026-02-22 07:52 34.55615 135.35904 1507 ft 119 kts 167°
2026-02-22 07:52 34.54843 135.35792 1497 ft 117 kts 214°
2026-02-22 07:52 34.54139 135.35249 1492 ft 118 kts 193°
2026-02-22 07:53 34.53357 135.34923 1493 ft 120 kts 201°
2026-02-22 07:53 34.52602 135.34491 1492 ft 121 kts 202°
2026-02-22 07:53 34.49878 135.32871 1489 ft 120 kts 202°
2026-02-22 07:53 34.48430 135.32000 1492 ft 120 kts 202°
2026-02-22 07:54 34.47681 135.31556 1487 ft 120 kts 201°
2026-02-22 07:54 34.47097 135.30820 1494 ft 126 kts 230°
2026-02-22 07:54 34.46598 135.29898 1200 ft 135 kts 227°
2026-02-22 07:54 34.46017 135.29011 810 ft 130 kts 224°
2026-02-22 07:55 34.45458 135.28241 643 ft 118 kts 222°
2026-02-22 07:55 34.44888 135.27551 559 ft 118 kts 225°
2026-02-22 07:55 34.44320 135.26758 348 ft 130 kts 227°
2026-02-22 07:55 34.43761 135.25942 97 ft 123 kts 230°
2026-02-22 07:56 34.43248 135.25185 109 ft 115 kts 231°
2026-02-22 07:56 34.42721 135.24354 867 ft 134 kts 227°
2026-02-22 07:56 34.42156 135.23349 1683 ft 158 kts 227°
2026-02-22 07:56 34.41361 135.22178 1614 ft 190 kts 223°
2026-02-22 07:57 34.40327 135.20715 2468 ft 188 kts 223°